Regional Weather Roundup
Issued by NWS

Home | Current Version | Previous Version | Graphics & Text | Print | Product List | Glossary On
Versions: 1 2 3 4 5 6 7 8 9 10 11 12 13 14 15 16 17 18 19 20 21 22 23 24 25 26 27 28 29 30 31 32 33 34 35 36 37 38 39 40 41 42 43 44 45 46 47 48 49 50
267
ASUS45 KBOU 111907
RWRCO

WEATHER ROUNDUP FOR COLORADO
NATIONAL WEATHER SERVICE DENVER/BOULDER CO
1200 PM MST THU FEB 11 2016

NOTE: "FAIR" INDICATES FEW OR NO CLOUDS BELOW 12000 FEET WITH NO
SIGNIFICANT WEATHER AND/OR OBSTRUCTIONS TO VISIBILITY.

COZ001>005-013-030-031-112000-
...NORTHWEST COLORADO...

CITY           SKY/WX    TMP DP  RH WIND       PRES   REMARKS
CRAIG          CLOUDY    23  15  71 SW6       30.40F WCI  16
HAYDEN         CLOUDY    28  16  59 SE3       30.39F
MEEKER         CLOUDY    31  17  56 CALM      30.40F
MOUNT WERNER   NOT AVBL
STEAMBOAT SPGS CLOUDY    26  16  66 CALM      30.39F
WALDEN         CLOUDY    37  19  48 S9        30.35F
$$

COZ006>008-011-112000-
...WEST CENTRAL VALLEYS...

CITY           SKY/WX    TMP DP  RH WIND       PRES   REMARKS
GRAND JUNCTION SUNNY     37  23  56 CALM      30.44S
MONTROSE       SUNNY     40  20  44 CALM      30.43F
EAGLE          SUNNY     32  16  51 W3        30.44F
RIFLE          CLOUDY    32  17  54 CALM      30.43F
DELTA          SUNNY     42  22  44 CALM      30.43F
NUCLA          SUNNY     37  21  52 N3        30.45F
$$

COZ017>023-064>068-112000-
...SOUTHWEST COLORADO...

CITY           SKY/WX    TMP DP  RH WIND       PRES   REMARKS
DURANGO        SUNNY     36  22  56 NE7       30.40F
CORTEZ         SUNNY     44  16  32 S3        30.40F
PAGOSA SPRINGS SUNNY     45   8  21 SW3       30.40F
TELLURIDE      SUNNY     46   7  20 CALM      30.46F
WOLF CREEK PAS SUNNY     37  -6  15 W9        30.54F
$$

COZ009-010-012-014-032>034-037-058>063-112000-
...CENTRAL COLORADO...

CITY           SKY/WX    TMP DP  RH WIND       PRES   REMARKS
ASPEN          CLOUDY    39  19  44 CALM      30.40F
BUENA VISTA    CLOUDY    48  13  24 SE5       30.30F
COPPER MTN     CLOUDY    34   0  23 W31G37    30.48F WCI  20
BERTHOUD PASS  FAIR      27  16  63 NW40G54   30.39F WCI   8
COTTONWOOD PAS CLOUDY    46   1  15 E10G17    30.35F
GUNNISON       CLOUDY     3  -2  78 CALM      30.53F
KREMMLING      CLOUDY    14   3  62 W5        30.46F WCI   6
LEADVILLE      CLOUDY    41   5  22 NW14G20   30.40F
MONARCH PASS   CLOUDY    28   5  37 W37G48    30.53R WCI  11
SALIDA         NOT AVBL
SUNLIGHT       SUNNY     39  10  30 CALM      30.52F
WILKERSON PASS CLOUDY    41   3  20 S3        30.43S
$$

COZ069>075-112000-
...SAN LUIS VALLEY/SANGRE DE CRISTO MOUNTAINS...

CITY           SKY/WX    TMP DP  RH WIND       PRES   REMARKS
ALAMOSA        SUNNY     42  14  32 W3        30.37F
LA VETA PASS   CLOUDY    41   9  26 S12G22    30.37F
SAGUACHE       CLOUDY    43  16  33 SE6       30.39F
$$

COZ035-036-038>040-112000-
...NORTHERN COLORADO FRONT RANGE...

CITY           SKY/WX    TMP DP  RH WIND       PRES   REMARKS
DENVER INTL AP CLOUDY    61  22  22 W18G24    30.12F
DMNS CITY PARK   N/A     64  13  14 W14G28    30.12F
AURORA         NOT AVBL
FRONT RANGE AP PTSUNNY   57  25  28 MISG      30.14S
ERIE MUNI ARPT CLOUDY    63  21  20 W15G25    30.11F
BOULDER MUN AP CLOUDY    63  19  19 W17G31    30.10F
CENTENNIAL     CLOUDY    60  14  16 NW16      30.15F
BROOMFIELD     PTSUNNY   63  16  16 W18G29    30.15S
FORT COLLINS   CLOUDY    43  25  49 CALM      30.14S
LONGMONT       CLOUDY    51  28  41 N10G18    30.13R
$$

COZ041-046-047-076>085-087-088-112000-
...PIKES PEAK/PALMER DIVIDE AND SOUTHERN FOOTHILLS...

CITY           SKY/WX    TMP DP  RH WIND       PRES   REMARKS
COLO. SPRINGS  CLOUDY    53  16  23 CALM      30.19F
A. F. ACADEMY  CLOUDY    54  12  18 W6        30.18F
SCHRIEVER AFB  FAIR      52  15  23 W6        30.19F
ELLICOTT       CLOUDY   N/A N/A N/A W7        30.17F
FALCON         NOT AVBL
FORT CARSON    MOSUNNY   49  20  31 SW3       30.17F
LIMON          CLOUDY    44  26  49 NW3       30.16S
MONUMENT HILL  CLOUDY    45  21  39 W12       30.22F
TRINIDAD       CLOUDY    67   8  10 VRB6      30.19F
$$

COZ042>045-048>051-090-091-112000-
...NORTHEAST COLORADO...

CITY           SKY/WX    TMP DP  RH WIND       PRES   REMARKS
GREELEY ARPT   CLOUDY    39  30  70 CALM      30.13F
AKRON          CLOUDY    47  28  47 W13       30.12S
BURLINGTON     CLOUDY    50  28  42 W17       30.12S
WRAY           NOT AVBL
STERLING       CLOUDY    50  34  53 S7        30.10S
HOLYOKE        SUNNY     54  32  43 NW10      30.08F
FORT MORGAN    CLOUDY    55  27  33 W8        30.13S
$$

COZ086-089-092>099-112000-
...SOUTHEAST COLORADO...

CITY           SKY/WX    TMP DP  RH WIND       PRES   REMARKS
PUEBLO         CLOUDY    63  17  17 NW5       30.14F
LA JUNTA       SUNNY     60  26  27 CALM      30.13F
LAMAR          SUNNY     65  25  22 SW12      30.11F
SPRINGFIELD      N/A     65  15  14 SW15      30.15F
$$




USA.gov is the U.S. government's official web portal to all federal, state and local government web resources and services.